Terminal Aerodrome Forecast
Issued by NWS Bismarck, ND

Home | Current Version | Previous Version | Graphics & Text | Print | Product List | Glossary On
Versions: 1 2 3 4 5 6 7 8 9 10 11 12 13 14 15 16 17 18 19 20 21 22
000
FTUS43 KBIS 281600 AAA
TAFBIS
TAF AMD
KBIS 281602Z 2816/2912 00000KT P6SM BKN007 BKN017
      TEMPO 2816/2817 SCT007 BKN017
     FM281700 20006KT P6SM BKN020
     FM281800 21008KT P6SM FEW030 SCT040
     FM290300 15004KT P6SM SCT050
     FM291000 33005KT P6SM BKN080=

USA.gov is the U.S. government's official web portal to all federal, state and local government web resources and services.